Regional Weather Roundup
Issued by NWS Northern Indiana

Home | Current Version | Previous Version | Text Only | Print | Product List | Glossary Off
Versions: 1 2 3 4 5 6 7 8 9 10 11 12 13 14 15 16 17 18 19 20 21 22 23 24 25 26 27 28 29 30 31 32 33 34 35 36 37 38 39 40 41 42 43 44 45 46 47 48 49 50

895
ASUS43 KIWX 062210
RWRIWX

KIWX WEATHER ROUNDUP
NATIONAL WEATHER SERVICE NORTHERN INDIANA
500 PM EST TUE DEC 06 2016

NOTE: "FAIR" INDICATES FEW OR NO CLOUDS BELOW 12,000 FEET WITH NO
SIGNIFICANT WEATHER AND/OR OBSTRUCTIONS TO VISIBILITY.

* THESE STATIONS ARE NOT UNDER NWS QUALITY CONTROL. THEY ALSO MAY NOT
  REPORT WEATHER SUCH AS PRECIPITATION OR FOG.

INZ001>027-062300-
NORTHERN INDIANA

CITY           SKY/WX    TMP DP  RH WIND       PRES   REMARKS
GARY*          CLOUDY    37  34  87 W10       29.83
VALPARAISO     CLOUDY    36  31  82 W9        29.81R
MICHIGAN CITY* PTCLDY    36  32  87 W10       29.80S
LAPORTE*       CLOUDY    38  38 100 W12G22    29.80R
KNOX*          CLOUDY    36  21  55 W14       29.82R
SOUTH BEND     CLOUDY    36  31  82 SW12      29.79R
ELKHART*       CLOUDY    37  32  81 W10G16    29.77R
GOSHEN         CLOUDY    39  32  76 W18G24    29.77R
MONTICELLO*    CLOUDY    34  30  86 W15G22    29.85R FOG     WCI  24
LOGANSPORT*    CLOUDY    34  32  93 W14       29.84R FOG     WCI  24
ROCHESTER*     CLOUDY    37  34  87 W16G26    29.82R
WARSAW*        CLOUDY    37  32  81 W18G24    29.78R
ANGOLA*        CLOUDY    37  36  93 SW3       29.73R
FORT WAYNE     MOCLDY    38  34  85 W10       29.76R
HUNTINGTON*    CLOUDY    38  34  88 W8        29.77R
MARION*        CLOUDY    38  35  89 W18       29.80R FOG

$$
INZ028>050-062300-
CENTRAL INDIANA

CITY           SKY/WX    TMP DP  RH WIND       PRES   REMARKS
LAFAYETTE      CLOUDY    35  33  92 NW12G25   29.87R WCI  27
KOKOMO*        CLOUDY    36  34  92 W22       29.82R FOG
MUNCIE*        CLOUDY    40  36  86 NW15      29.78R FOG
INDIANAPOLIS   CLOUDY    39  34  82 NW21G30   29.85R

$$
MIZ043>046-050>051-056>058-064>065-071>073-077>080-062300-
SOUTHWEST LOWER MICHIGAN

CITY           SKY/WX    TMP DP  RH WIND       PRES   REMARKS
BATTLE CREEK   CLOUDY    38  34  85 W10       29.73R
BENTON HARBOR  CLOUDY    41  34  76 W20G31    29.78R
COLDWATER*     MOCLDY    37  34  88 SW5       29.73R
HILLSDALE*     CLOUDY    36  34  93 CALM      29.71R FOG
HOLLAND        CLOUDY    41  33  73 W13G18    29.74R
GRAND RAPIDS   CLOUDY    38  32  79 SW8       29.73R
KALAMAZOO      CLOUDY    40  31  70 W9        29.74R
STURGIS*       PTCLDY    38  33  81 W7        29.74R
THREE RIVERS*  MOCLDY    39  32  75 W10       29.75R

$$
OHZ001>008-015>018-024>025-062300-
NORTHWEST OHIO

CITY           SKY/WX    TMP DP  RH WIND       PRES   REMARKS
WAUSEON*       CLOUDY    37  36  93 CALM      29.72R FOG
DEFIANCE       CLOUDY    38  33  82 CALM      29.74R
FINDLAY        CLOUDY    37  33  85 W6        29.71R FOG
TOLEDO EXPRESS CLOUDY    37  37 100 CALM      29.72R FOG
TOLEDO METCALF CLOUDY    39  38  96 CALM      29.73R FOG
LIMA           CLOUDY    35  35 100 W7        29.73R FOG     WCI  29

$$
AND FOR LAKE MICHIGAN COASTAL AND OPEN LAKE BUOY OBSERVATIONS

STATION/POSITION TEMP    WIND        PRES    VSBY  WAVE
                 AIR SEA DIR/SP/G                  HT/PER
                 (F)     (DEG/KT/KT) (MB)    (MI)  (FT/S)
CALUMET HARBOR    36     250/  6/ 13 1009.2R
MICHIGAN CITY     38     260/ 21/ 23   N/A
BURNS HARBOR      38     280/ 16/ 20 1009.8R

$$
&&




USA.gov is the U.S. government's official web portal to all federal, state and local government web resources and services.